Hourly Data Report for January 13, 2013

BAGOTVILLE A
QUEBEC

48°20'00.000" N
71°00'00.000" W
159.10 m
7060400
71727
YBG

Download Data

Hourly Data (January 2013)
Hourly Data Report for January 13, 2013
TIME
LST
Temp Definition
°C
Dew Point Definition
°C
Rel Hum Definition
%
Precip. Amount Definition
mm

Wind Dir Definition
10's deg

Wind Spd Definition
km/h
Visibility Definition
km
Stn Press Definition
kPa
Hmdx Definition


Wind Chill Definition


Weather Definition


00:00 0.5 -0.2 95   18 7 24.1 99.39     Mostly Cloudy
01:00 4.4 1.7 83   25 17 24.1 99.37     Mostly Cloudy
02:00 4.9 2.0 81   27 15 24.1 99.50     Mostly Cloudy
03:00 4.6 1.9 83   27 17 24.1 99.56     Mostly Cloudy
04:00 4.0 1.3 83   25 15 24.1 99.54     Mostly Cloudy
05:00 4.0 1.7 85   25 9 24.1 99.54     Mostly Cloudy
06:00 2.6 0.7 87   21 9 24.1 99.54     Mostly Cloudy
07:00 2.6 1.2 90   22 6 24.1 99.55     Mostly Cloudy
08:00 -1.6 -2.3 95   11 9 0.2 99.45   -5 Freezing Fog
09:00 0.1 -0.4 96   13 4 0.2 99.56     Fog
10:00 0.1 -0.4 96   13 6 0.4 99.65     Fog
11:00 0.1 -0.1 99     0 6.4 99.53     Fog
12:00 1.5 0.5 93   8 11 40.2 99.46     Cloudy
13:00 1.9 1.2 95   12 11 9.7 99.39     Rain Showers
14:00 1.6 1.4 99   10 17 8.0 99.20     Rain Showers
15:00 2.0 1.5 96   10 20 1.6 99.03     Rain Showers, Fog
16:00 2.0 1.8 99   9 6 4.8 99.06     Rain Showers, Fog
17:00 2.3 1.6 95   9 13 4.8 98.96     Rain Showers, Fog
18:00 2.8 1.7 92   10 19 4.8 98.91     Rain Showers, Fog
19:00 2.4 1.7 95   11 13 4.8 98.89     Rain Showers, Fog
20:00 2.1 1.9 99   12 4 1.2 98.96     Rain Showers, Fog
21:00 2.1 1.9 99   11 9 0.2 98.81     Rain Showers, Fog
22:00 1.9 1.7 99     0 2.4 98.83     Fog
23:00 1.9 1.7 99   10 9 0.4 98.85     Fog

Notes on Data Quality.

Legend

  • E = Estimated
  • M = Missing
  • NA = Not Available*
  • [empty] = Indicates an unobserved value
Date modified: